Probability
0 0 0 0 0 0 0 0 0 0 0 0 0 0 0 0 0 1 4 8 11 12 9 6 4 4 3 2 4 3 3 4 4 5 5 4 4 5 6 8 9 11 14
0 0 0 0 0 0 0 0 0 0 0 0 0 0 0 0 0 1 2 6 11 14 13 10 6 3 3 3 3 5 6 6 7 9 9 7 7 7 8 8 9 9 11
1 0 0 0 0 0 0 0 0 0 0 0 0 0 0 0 0 0 1 3 6 9 11 9 5 2 2 2 3 5 7 7 9 11 11 10 9 8 8 8 7 6 6
4 2 1 1 0 0 0 0 0 0 0 0 0 0 0 0 0 0 1 1 1 2 3 4 2 1 1 1 2 3 4 5 6 7 7 7 7 6 4 4 4 4 3
10 8 5 3 2 2 1 0 0 0 0 0 0 0 0 0 0 0 0 0 0 0 0 0 0 0 0 0 0 1 2 2 3 2 2 2 2 1 0 1 2 2 2
18 15 11 8 7 5 3 0 0 0 0 0 0 0 0 0 0 0 0 0 0 0 0 0 0 0 0 0 0 1 1 1 1 0 0 0 0 0 0 0 1 1 1
19 17 13 10 8 6 2 0 0 0 0 0 0 0 0 0 0 0 0 0 0 0 0 0 0 0 0 0 0 0 0 0 0 0 0 0 0 0 0 0 0 0 0
13 12 10 7 5 3 1 0 0 0 0 0 0 0 0 0 0 0 0 0 0 0 0 0 0 0 0 0 0 0 0 0 0 0 0 0 0 0 0 0 0 0 0
7 6 4 2 1 0 0 0 0 0 0 0 0 0 0 0 0 0 0 0 0 0 0 0 0 0 0 0 0 0 0 0 0 0 0 0 0 0 0 0 0 0 0
2 2 1 0 0 0 0 0 0 0 0 0 0 0 0 0 0 0 0 0 0 0 0 0 0 0 0 0 0 0 0 0 0 0 0 0 0 0 0 0 0 0 0
0 0 0 0 0 0 0 0 0 0 0 0 0 0 0 0 0 0 0 0 0 0 0 0 0 0 0 0 0 0 0 0 0 0 0 0 0 0 0 0 0 0 0
0 0 0 0 0 0 0 0 0 0 0 0 0 0 0 0 0 0 0 0 0 0 0 0 0 0 0 0 0 0 0 0 0 0 0 0 0 0 0 0 0 0 0
0 0 0 0 0 0 0 0 0 0 0 0 0 0 0 0 0 0 0 0 0 0 0 0 0 0 0 0 0 0 0 0 0 0 0 0 0 0 0 0 0 0 0
0 0 0 0 0 0 0 0 0 0 0 0 0 0 0 0 0 0 0 0 0 0 0 0 0 0 0 0 0 0 0 0 0 0 0 0 0 0 0 0 0 0 0
0 0 0 0 0 0 0 0 0 0 0 0 0 0 0 0 0 0 0 0 0 0 0 0 0 0 0 0 0 0 0 0 0 0 0 0 0 0 0 0 0 0 0
0 0 0 0 0 0 0 0 0 0 0 0 0 0 0 0 0 0 0 0 0 0 0 0 0 0 0 0 0 0 0 0 0 0 0 0 0 0 0 0 0 0 0
0 0 0 0 0 0 0 0 0 0 0 0 0 0 0 0 0 0 0 0 0 0 0 0 0 0 0 0 0 0 0 0 0 0 0 0 0 0 0 0 0 0 0
0 0 0 0 0 0 0 0 0 0 0 0 0 0 0 0 0 0 0 0 0 0 0 0 0 0 0 0 0 0 0 0 0 0 0 0 0 0 0 0 0 0 0
0 0 0 0 0 0 0 0 0 0 0 0 0 0 0 0 0 0 0 0 0 0 0 0 0 0 0 0 0 0 0 0 0 0 0 0 0 0 0 0 0 0 0
0 0 0 0 0 0 0 0 0 0 0 0 0 0 0 0 0 0 0 0 0 0 0 0 0 0 0 0 0 0 0 0 0 0 0 0 0 0 0 0 0 0 0
0 0 0 0 0 0 0 0 0 0 0 0 0 0 0 0 0 0 0 0 0 0 0 0 0 0 0 0 0 0 0 0 0 0 0 0 0 0 0 0 0 0 0
0 0 0 0 0 0 0 0 0 0 0 0 0 0 0 0 0 0 0 0 0 0 0 0 0 0 0 0 0 0 0 0 0 0 0 0 0 0 0 0 0 0 0
0 0 0 0 0 0 0 0 0 0 0 0 0 0 0 0 0 0 0 0 0 0 0 0 0 0 0 0 0 0 0 0 0 0 0 0 0 0 0 0 0 0 0
0 0 0 0 0 0 0 0 0 0 0 0 0 0 0 0 0 0 0 0 0 0 0 0 0 0 0 0 0 0 0 0 0 0 0 0 0 0 0 0 0 0 0
0 0 0 0 0 0 0 0 0 0 0 0 0 0 0 0 0 0 0 0 0 0 0 0 0 0 0 0 0 0 0 0 0 0 0 0 0 0 0 0 0 0 0
0 0 0 0 0 0 0 0 0 0 0 0 0 0 0 0 0 0 0 0 0 0 0 0 0 0 0 0 0 0 0 0 0 0 0 0 0 0 0 0 0 0 0
Wind_Speed
5 5 4 4 4 3 3 3 2 2 1 1 2 5 6 6 5 4 3 8 7 7 7 7 6 5 4 3 2 1 0 2 2 3 4 4 5 5 6 6 7 7 7
5 5 5 4 4 3 3 3 2 2 2 2 4 5 6 6 5 5 4 5 7 7 7 7 6 5 4 3 3 2 2 2 2 2 2 2 2 3 4 4 5 6 6
6 5 4 4 3 3 3 2 3 3 3 4 5 5 4 4 4 4 4 3 4 7 8 7 6 6 5 4 4 4 4 5 5 5 5 5 5 5 5 4 4 4 4
6 5 4 3 3 3 3 3 3 3 3 3 3 3 3 3 3 3 3 3 2 3 5 7 7 6 5 4 4 4 4 4 5 6 6 7 7 7 8 7 7 7 6
5 5 4 3 4 3 3 4 3 3 3 3 3 3 2 2 2 2 3 3 2 2 2 5 6 6 5 5 4 4 4 4 4 5 5 5 6 7 8 9 9 9 9
5 5 4 4 4 4 3 4 4 4 3 2 3 2 2 1 1 1 1 1 1 2 3 3 2 3 6 6 5 4 3 2 2 2 1 2 4 5 6 7 9 10 10
6 5 4 4 4 4 4 5 4 4 3 2 2 2 2 2 2 1 1 0 0 1 2 3 2 2 2 7 7 7 6 4 3 3 2 1 1 3 5 6 8 10 11
6 5 5 4 4 5 5 4 3 3 2 2 2 2 1 3 3 2 2 1 1 1 0 1 2 2 3 2 5 9 8 8 7 7 6 4 4 4 5 7 9 11 12
7 7 6 5 5 5 4 4 3 4 3 2 2 2 2 2 2 3 3 3 3 2 2 2 2 2 2 2 3 7 9 9 10 9 8 6 5 6 7 9 11 13 15
8 7 7 7 6 5 5 4 4 3 3 2 2 3 2 2 2 1 3 3 3 3 3 3 4 3 2 1 3 6 7 6 7 7 6 6 7 9 10 12 15 16 17
7 7 7 7 6 5 6 6 5 5 3 3 2 2 2 3 2 2 1 3 3 3 3 3 3 3 4 3 2 2 2 1 1 3 5 7 9 12 14 16 17 19 20
6 8 8 7 6 6 6 6 6 6 5 5 4 3 2 2 1 1 0 1 2 3 3 3 4 4 4 4 5 7 6 4 2 3 5 9 12 14 17 18 20 21 21
5 6 6 6 6 6 6 6 6 6 5 5 4 3 3 2 1 1 1 1 2 3 3 3 3 3 4 3 4 8 6 6 5 7 10 13 15 17 19 20 21 22 22
5 6 6 7 6 6 6 6 5 5 5 5 5 4 3 3 2 2 1 1 1 3 3 4 3 3 3 3 4 5 4 10 11 11 12 15 17 19 20 20 21 21 22
6 6 7 7 6 6 6 6 5 5 5 5 4 5 3 2 3 2 2 2 2 1 3 3 3 4 4 4 6 4 5 11 15 14 15 15 18 19 20 21 21 22 22
6 6 7 7 7 7 7 7 5 5 6 4 3 5 4 2 3 2 2 2 2 3 2 3 3 4 5 7 11 7 7 17 16 16 17 17 17 19 20 21 22 22 23
6 7 7 7 8 8 7 7 7 6 6 5 4 4 3 2 2 2 1 1 1 1 2 4 3 4 5 7 8 7 7 6 7 16 18 18 19 19 19 19 20 21 22
7 7 8 8 9 9 8 8 7 7 6 5 4 4 3 2 2 2 1 2 2 1 2 4 4 4 5 7 7 8 8 8 6 14 18 19 20 19 16 15 17 17 18
8 8 9 9 8 8 7 7 6 5 5 4 4 3 3 3 3 2 2 2 2 3 2 3 5 4 4 6 6 8 8 7 9 11 14 17 18 17 16 16 17 17 17
8 8 8 8 7 7 6 6 5 5 5 5 4 4 4 3 3 3 3 3 3 3 4 4 5 6 5 6 5 5 7 6 7 9 12 13 15 16 18 18 19 19 17
8 7 7 6 5 5 4 4 4 5 5 5 6 5 5 6 5 2 2 3 3 3 4 5 6 6 7 6 6 5 8 8 8 6 5 6 7 7 10 14 16 17 16
5 6 5 5 4 3 3 5 4 3 4 5 5 6 7 5 5 5 7 8 8 6 6 5 6 8 9 8 7 7 7 7 5 3 3 7 6 7 7 6 12 16 15
3 3 3 3 2 1 1 3 6 3 4 4 5 5 5 6 5 3 6 10 11 14 12 7 8 9 9 9 8 8 7 7 7 6 5 7 5 7 7 8 14 15 15
2 1 1 2 2 2 2 2 5 4 4 5 5 5 6 6 5 4 5 7 8 9 10 7 7 10 10 9 8 7 7 7 7 6 4 5 5 5 7 7 11 13 13
1 1 1 2 2 3 3 2 3 3 4 6 6 7 7 5 8 9 6 8 10 10 11 11 12 13 14 14 10 4 4 5 6 5 3 3 4 5 6 6 7 11 12
1 1 1 1 2 2 3 3 3 2 4 5 6 7 9 9 11 12 7 7 10 10 9 11 10 10 8 8 9 4 4 4 5 4 3 3 4 4 5 3 4 6 7
Wind_Direction
188 186 190 190 195 198 199 210 217 225 220 188 117 118 124 126 130 129 141 151 151 152 153 150 147 147 144 135 123 104 342 293 286 276 270 264 260 256 256 257 258 254 251
180 179 182 181 189 197 200 194 184 161 144 114 96 101 112 120 127 131 128 136 136 136 137 139 137 136 130 119 104 79 52 31 15 3 352 330 309 294 283 278 275 272 267
171 171 169 172 179 171 152 128 119 116 116 101 91 89 98 108 129 132 131 127 130 132 133 130 125 120 116 107 96 80 69 58 43 31 27 29 30 23 13 0 346 335 318
159 156 155 159 151 131 124 122 117 103 92 93 94 87 83 89 100 120 126 134 140 141 141 145 142 137 133 124 109 94 80 70 60 50 43 38 34 30 24 16 6 357 345
144 138 141 137 128 112 110 120 99 102 99 93 95 77 63 74 87 112 125 141 155 158 158 163 160 157 155 148 136 121 101 84 72 62 47 38 36 33 28 21 13 3 352
117 112 109 107 107 103 96 96 96 77 82 92 88 68 31 19 39 91 130 131 144 164 173 178 176 189 187 182 181 176 170 154 125 101 50 29 30 26 16 6 359 352 345
100 102 102 93 93 102 110 111 101 87 62 38 73 34 356 5 26 7 11 69 103 157 175 184 195 209 219 217 213 207 211 218 214 215 232 268 342 347 345 341 336 332 329
88 93 95 95 94 99 93 86 100 105 73 39 101 101 357 351 359 6 6 21 9 0 348 204 201 212 225 227 235 230 231 232 231 233 239 240 250 276 298 308 311 312 310
77 82 85 89 86 88 91 80 86 110 116 53 46 126 153 218 319 340 5 22 8 8 346 331 313 284 247 224 237 246 243 234 236 242 247 250 261 274 285 293 296 298 298
70 74 79 82 82 83 85 77 70 86 110 108 58 49 78 126 140 330 338 358 7 20 357 346 339 329 316 278 261 257 257 237 239 250 261 273 279 285 289 291 292 292 291
67 71 74 78 79 79 79 75 70 69 75 95 93 82 68 55 71 130 308 334 345 349 353 351 350 350 351 356 347 360 6 10 270 280 291 294 294 294 293 293 292 290 289
68 67 71 73 76 77 76 74 73 73 72 75 71 66 78 79 58 94 165 301 315 311 332 1 17 7 13 17 20 37 44 38 2 304 293 292 292 291 292 291 290 288 286
79 71 75 75 74 74 74 72 71 66 63 68 67 64 62 58 58 90 107 316 310 307 328 345 13 18 24 15 9 17 10 347 313 289 282 282 285 286 287 286 285 284 284
90 85 80 75 71 70 69 66 64 62 62 63 64 67 64 50 57 69 102 94 358 327 327 315 331 11 4 344 334 351 331 320 306 292 282 281 284 286 286 285 284 282 281
94 85 81 76 69 64 63 64 59 53 57 56 55 57 57 39 46 61 80 114 129 326 296 301 318 325 331 317 310 304 295 301 304 297 291 286 286 287 287 286 284 281 278
88 88 81 77 68 61 60 61 55 50 58 50 57 56 48 35 32 38 57 81 130 161 245 279 276 290 310 321 318 312 295 308 306 302 298 294 290 289 288 287 286 284 281
83 81 79 75 67 60 56 59 54 49 51 41 38 48 37 34 24 10 20 31 53 158 237 273 268 286 299 304 308 302 298 291 289 298 299 295 292 291 289 288 289 288 285
71 74 74 72 71 64 58 57 51 43 40 32 21 24 3 359 357 341 337 325 302 265 234 284 289 294 292 294 292 297 300 299 291 295 294 292 293 293 290 289 290 287 283
71 74 77 79 76 68 60 53 47 36 25 12 2 355 331 342 327 305 296 291 285 293 271 277 290 288 288 293 297 295 290 289 292 294 293 292 293 294 293 293 290 286 282
78 80 84 85 81 74 64 49 37 23 4 351 343 334 321 312 290 283 281 282 286 296 294 290 291 293 288 286 283 289 297 290 290 295 292 292 292 293 293 292 290 288 284
83 89 95 92 86 78 64 53 26 14 354 341 334 329 319 321 322 302 294 287 290 287 291 291 293 296 295 297 293 283 292 296 287 274 281 289 289 285 287 288 290 289 285
80 89 99 104 96 89 74 50 30 2 341 334 326 322 316 317 324 335 338 331 318 301 291 283 289 292 293 290 287 289 293 299 295 277 277 290 283 281 281 275 282 285 286
82 90 110 125 134 174 91 20 11 7 342 332 324 321 324 324 321 316 319 320 312 303 291 279 278 282 286 288 290 293 289 288 285 283 285 288 285 283 282 287 291 292 290
82 110 174 184 187 230 242 342 359 2 344 332 323 316 313 311 300 302 307 308 301 296 289 281 264 271 277 280 276 278 281 286 278 274 260 275 281 281 289 289 290 291 294
23 265 222 215 220 253 250 286 358 344 333 327 324 327 325 317 305 311 309 303 304 302 298 284 277 280 283 286 285 281 287 293 299 297 272 259 276 288 287 284 286 291 294
308 302 273 252 234 240 249 270 327 334 325 320 320 320 322 316 311 312 301 291 294 297 304 311 310 308 303 301 303 274 263 285 296 295 278 275 277 296 293 276 279 288 293